Location: Newark
(32.9900°N, 111.5400°W)
Time: 01:19:26
(UTC+00:00)

Envisat - Pass Details

Date: 15 November 2019
Orbit: 764 x 766 km, 98.1° (Epoch: 05 December)

Event Time Altitude Azimuth Distance (km) Brightness Sun altitude
Rises 01:18:29 0° 159° (SSE) 3,217 6.2 -11.5°
Reaches altitude 10° 01:20:48 10° 156° (SSE) 2,294 5.4 -11.9°
Maximum altitude 01:25:48 66° 75° (ENE) 836 2.9 -13.0°
Drops below altitude 10° 01:30:50 10° 354° (N) 2,307 5.4 -14.0°
Sets 01:33:09 0° 352° (N) 3,236 6.2 -14.5°
